Time,TemperatureF,DewpointF,PressureIn,WindDirection,WindDirectionDegrees,WindSpeedMPH,WindSpeedGustMPH,Humidity,HourlyPrecipIn,Conditions,Clouds,dailyrainin,SoftwareType,DateUTC
2013-08-10 00:02:00,66.9,60.2,29.97,West,259,0.0,0.0,79,0.00,,,0.00,LWC V1.12 B30,2013-08-10 04:02:00,
2013-08-10 00:04:00,66.8,60.1,29.97,West,259,0.0,0.0,79,0.00,,,0.00,LWC V1.12 B30,2013-08-10 04:04:00,
2013-08-10 00:10:00,66.6,60.2,29.97,West,259,0.0,0.0,80,0.00,,,0.00,LWC V1.12 B30,2013-08-10 04:10:00,
2013-08-10 00:16:00,66.4,60.0,29.98,West,259,0.0,0.0,80,0.00,,,0.00,LWC V1.12 B30,2013-08-10 04:16:00,
2013-08-10 00:18:00,66.4,60.4,29.98,West,259,0.0,0.0,81,0.00,,,0.00,LWC V1.12 B30,2013-08-10 04:18:00,
2013-08-10 00:24:00,66.1,60.1,29.97,West,259,0.0,0.0,81,0.00,,,0.00,LWC V1.12 B30,2013-08-10 04:24:00,
2013-08-10 00:30:00,66.0,60.3,29.98,West,259,0.0,0.0,82,0.00,,,0.00,LWC V1.12 B30,2013-08-10 04:30:00,
2013-08-10 00:34:00,66.0,60.3,29.98,West,259,0.0,0.0,82,0.00,,,0.00,LWC V1.12 B30,2013-08-10 04:34:00,
2013-08-10 00:40:00,65.6,60.3,29.98,West,259,0.0,0.0,83,0.00,,,0.00,LWC V1.12 B30,2013-08-10 04:40:00,
2013-08-10 00:46:00,65.5,60.2,29.98,West,259,0.0,0.0,83,0.00,,,0.00,LWC V1.12 B30,2013-08-10 04:46:00,
2013-08-10 00:52:00,65.3,60.3,29.98,West,259,0.0,0.0,84,0.00,,,0.00,LWC V1.12 B30,2013-08-10 04:52:00,
2013-08-10 00:58:00,65.2,60.2,29.98,West,259,0.0,0.0,84,0.00,,,0.00,LWC V1.12 B30,2013-08-10 04:58:00,
2013-08-10 01:04:00,65.2,60.6,29.98,West,259,0.0,0.0,85,0.00,,,0.00,LWC V1.12 B30,2013-08-10 05:04:00,
2013-08-10 01:10:00,65.0,60.4,29.98,West,259,0.0,0.0,85,0.00,,,0.00,LWC V1.12 B30,2013-08-10 05:10:00,
2013-08-10 01:16:00,65.0,60.4,29.99,West,259,0.0,0.0,85,0.00,,,0.00,LWC V1.12 B30,2013-08-10 05:16:00,
2013-08-10 01:22:00,64.8,60.2,29.99,West,259,0.0,0.0,85,0.00,,,0.00,LWC V1.12 B30,2013-08-10 05:22:00,
2013-08-10 01:28:00,64.5,60.2,29.99,West,259,0.0,0.0,86,0.00,,,0.00,LWC V1.12 B30,2013-08-10 05:28:00,
2013-08-10 01:34:00,64.3,60.0,30.00,West,259,0.0,0.0,86,0.00,,,0.00,LWC V1.12 B30,2013-08-10 05:34:00,
2013-08-10 01:40:00,64.2,59.9,30.00,West,259,0.0,0.0,86,0.00,,,0.00,LWC V1.12 B30,2013-08-10 05:40:00,
2013-08-10 01:46:00,64.0,59.7,30.00,West,259,0.0,0.0,86,0.00,,,0.00,LWC V1.12 B30,2013-08-10 05:46:00,
2013-08-10 01:52:00,63.7,59.8,30.00,West,259,0.0,0.0,87,0.00,,,0.00,LWC V1.12 B30,2013-08-10 05:52:00,
2013-08-10 01:58:00,63.5,59.6,30.00,West,259,0.0,0.0,87,0.00,,,0.00,LWC V1.12 B30,2013-08-10 05:58:00,
2013-08-10 02:04:00,63.4,59.8,30.00,West,259,0.0,0.0,88,0.00,,,0.00,LWC V1.12 B30,2013-08-10 06:04:00,
2013-08-10 02:10:00,63.4,60.1,30.00,West,259,0.0,0.0,89,0.00,,,0.00,LWC V1.12 B30,2013-08-10 06:10:00,
2013-08-10 02:16:00,63.2,59.9,30.00,West,259,0.0,0.0,89,0.00,,,0.00,LWC V1.12 B30,2013-08-10 06:16:00,
2013-08-10 02:22:00,62.9,59.6,30.00,West,259,0.0,0.0,89,0.00,,,0.00,LWC V1.12 B30,2013-08-10 06:22:00,
2013-08-10 02:28:00,62.9,59.6,30.01,West,259,0.0,0.0,89,0.00,,,0.00,LWC V1.12 B30,2013-08-10 06:28:00,
2013-08-10 02:34:00,62.9,59.9,30.01,West,259,0.0,1.0,90,0.00,,,0.00,LWC V1.12 B30,2013-08-10 06:34:00,
2013-08-10 02:40:00,63.2,59.9,30.00,West,259,0.0,0.0,89,0.00,,,0.00,LWC V1.12 B30,2013-08-10 06:40:00,
2013-08-10 02:46:00,63.5,60.2,30.00,West,259,0.0,0.0,89,0.00,,,0.00,LWC V1.12 B30,2013-08-10 06:46:00,
2013-08-10 02:52:00,63.7,60.1,30.01,West,259,0.0,0.0,88,0.00,,,0.00,LWC V1.12 B30,2013-08-10 06:52:00,
2013-08-10 02:58:00,63.9,60.3,30.01,West,259,0.0,1.0,88,0.00,,,0.00,LWC V1.12 B30,2013-08-10 06:58:00,
2013-08-10 03:04:00,63.9,59.9,30.01,West,259,0.0,0.0,87,0.00,,,0.00,LWC V1.12 B30,2013-08-10 07:04:00,
2013-08-10 03:10:00,63.9,59.9,30.01,West,259,0.0,0.0,87,0.00,,,0.00,LWC V1.12 B30,2013-08-10 07:10:00,
2013-08-10 03:16:00,63.9,59.9,30.01,West,259,0.0,0.0,87,0.00,,,0.00,LWC V1.12 B30,2013-08-10 07:16:00,
2013-08-10 03:22:00,63.7,59.8,30.01,West,259,0.0,0.0,87,0.00,,,0.00,LWC V1.12 B30,2013-08-10 07:22:00,
2013-08-10 03:28:00,63.7,59.8,30.01,West,259,0.0,0.0,87,0.00,,,0.00,LWC V1.12 B30,2013-08-10 07:28:00,
2013-08-10 03:34:00,63.7,59.8,30.02,West,259,0.0,0.0,87,0.00,,,0.00,LWC V1.12 B30,2013-08-10 07:34:00,
2013-08-10 03:40:00,63.5,59.6,30.02,West,259,0.0,0.0,87,0.00,,,0.00,LWC V1.12 B30,2013-08-10 07:40:00,
2013-08-10 03:46:00,63.4,59.5,30.02,West,259,0.0,0.0,87,0.00,,,0.00,LWC V1.12 B30,2013-08-10 07:46:00,
2013-08-10 03:52:00,63.2,59.3,30.01,West,259,0.0,0.0,87,0.00,,,0.00,LWC V1.12 B30,2013-08-10 07:52:00,
2013-08-10 03:58:00,63.1,59.5,30.01,West,259,0.0,0.0,88,0.00,,,0.00,LWC V1.12 B30,2013-08-10 07:58:00,
2013-08-10 04:04:00,62.7,59.1,30.02,West,259,0.0,0.0,88,0.00,,,0.00,LWC V1.12 B30,2013-08-10 08:04:00,
2013-08-10 04:10:00,62.6,59.0,30.02,West,259,0.0,0.0,88,0.00,,,0.00,LWC V1.12 B30,2013-08-10 08:10:00,
2013-08-10 04:16:00,62.4,59.1,30.01,West,259,0.0,0.0,89,0.00,,,0.00,LWC V1.12 B30,2013-08-10 08:16:00,
2013-08-10 04:22:00,62.3,59.0,30.01,West,259,0.0,0.0,89,0.00,,,0.00,LWC V1.12 B30,2013-08-10 08:22:00,
2013-08-10 04:28:00,62.1,58.8,30.01,West,259,0.0,0.0,89,0.00,,,0.00,LWC V1.12 B30,2013-08-10 08:28:00,
2013-08-10 04:34:00,62.1,58.8,30.01,West,259,0.0,0.0,89,0.00,,,0.00,LWC V1.12 B30,2013-08-10 08:34:00,
2013-08-10 04:40:00,62.1,58.8,30.01,West,259,0.0,0.0,89,0.00,,,0.00,LWC V1.12 B30,2013-08-10 08:40:00,
2013-08-10 04:46:00,62.3,58.7,30.01,West,259,0.0,0.0,88,0.00,,,0.00,LWC V1.12 B30,2013-08-10 08:46:00,
2013-08-10 04:52:00,62.3,58.7,30.02,West,259,0.0,0.0,88,0.00,,,0.00,LWC V1.12 B30,2013-08-10 08:52:00,
2013-08-10 04:58:00,62.1,58.5,30.02,West,259,0.0,0.0,88,0.00,,,0.00,LWC V1.12 B30,2013-08-10 08:58:00,
2013-08-10 05:04:00,62.0,58.4,30.02,West,259,0.0,1.0,88,0.00,,,0.00,LWC V1.12 B30,2013-08-10 09:04:00,
2013-08-10 05:10:00,61.8,58.5,30.02,West,259,0.0,0.0,89,0.00,,,0.00,LWC V1.12 B30,2013-08-10 09:10:00,
2013-08-10 05:16:00,61.6,58.3,30.02,West,259,0.0,0.0,89,0.00,,,0.00,LWC V1.12 B30,2013-08-10 09:16:00,
2013-08-10 05:22:00,61.6,58.3,30.02,West,259,0.0,0.0,89,0.00,,,0.00,LWC V1.12 B30,2013-08-10 09:22:00,
2013-08-10 05:28:00,61.5,58.2,30.02,West,259,0.0,0.0,89,0.00,,,0.00,LWC V1.12 B30,2013-08-10 09:28:00,
2013-08-10 05:34:00,61.3,58.3,30.02,West,259,0.0,0.0,90,0.00,,,0.00,LWC V1.12 B30,2013-08-10 09:34:00,
2013-08-10 05:40:00,61.2,58.2,30.02,West,259,0.0,0.0,90,0.00,,,0.00,LWC V1.12 B30,2013-08-10 09:40:00,
2013-08-10 05:46:00,61.0,58.0,30.02,West,259,0.0,0.0,90,0.00,,,0.00,LWC V1.12 B30,2013-08-10 09:46:00,
2013-08-10 05:52:00,61.0,58.3,30.03,West,259,0.0,0.0,91,0.00,,,0.00,LWC V1.12 B30,2013-08-10 09:52:00,
2013-08-10 05:58:00,61.0,58.3,30.03,West,259,0.0,0.0,91,0.00,,,0.00,LWC V1.12 B30,2013-08-10 09:58:00,
2013-08-10 06:04:00,61.0,58.3,30.03,West,259,0.0,0.0,91,0.00,,,0.00,LWC V1.12 B30,2013-08-10 10:04:00,
2013-08-10 06:10:00,61.0,58.7,30.03,West,259,0.0,0.0,92,0.00,,,0.00,LWC V1.12 B30,2013-08-10 10:10:00,
2013-08-10 06:16:00,60.9,58.6,30.03,West,259,0.0,0.0,92,0.00,,,0.00,LWC V1.12 B30,2013-08-10 10:16:00,
2013-08-10 06:22:00,60.7,58.4,30.04,West,259,0.0,0.0,92,0.00,,,0.00,LWC V1.12 B30,2013-08-10 10:22:00,
2013-08-10 06:28:00,60.7,58.4,30.04,West,259,0.0,0.0,92,0.00,,,0.00,LWC V1.12 B30,2013-08-10 10:28:00,
2013-08-10 06:34:00,60.5,58.2,30.04,West,259,0.0,0.0,92,0.00,,,0.00,LWC V1.12 B30,2013-08-10 10:34:00,
2013-08-10 06:40:00,60.7,58.4,30.04,West,259,0.0,0.0,92,0.00,,,0.00,LWC V1.12 B30,2013-08-10 10:40:00,
2013-08-10 06:46:00,60.7,58.4,30.05,West,259,0.0,0.0,92,0.00,,,0.00,LWC V1.12 B30,2013-08-10 10:46:00,
2013-08-10 06:52:00,60.7,58.4,30.05,West,259,0.0,0.0,92,0.00,,,0.00,LWC V1.12 B30,2013-08-10 10:52:00,
2013-08-10 06:58:00,60.7,58.4,30.05,West,259,0.0,0.0,92,0.00,,,0.00,LWC V1.12 B30,2013-08-10 10:58:00,
2013-08-10 07:04:00,60.7,58.7,30.04,West,259,0.0,0.0,93,0.00,,,0.00,LWC V1.12 B30,2013-08-10 11:04:00,
2013-08-10 07:10:00,60.9,58.9,30.04,West,259,0.0,0.0,93,0.00,,,0.00,LWC V1.12 B30,2013-08-10 11:10:00,
2013-08-10 07:16:00,60.9,58.9,30.04,West,259,0.0,0.0,93,0.00,,,0.00,LWC V1.12 B30,2013-08-10 11:16:00,
2013-08-10 07:22:00,60.9,58.9,30.05,West,259,0.0,0.0,93,0.00,,,0.00,LWC V1.12 B30,2013-08-10 11:22:00,
2013-08-10 07:28:00,60.9,58.9,30.05,West,259,0.0,0.0,93,0.00,,,0.00,LWC V1.12 B30,2013-08-10 11:28:00,
2013-08-10 07:34:00,61.0,59.0,30.05,West,259,0.0,0.0,93,0.00,,,0.00,LWC V1.12 B30,2013-08-10 11:34:00,
2013-08-10 07:40:00,61.0,59.0,30.05,West,259,0.0,0.0,93,0.00,,,0.00,LWC V1.12 B30,2013-08-10 11:40:00,
2013-08-10 07:46:00,61.0,59.0,30.05,West,259,0.0,0.0,93,0.00,,,0.00,LWC V1.12 B30,2013-08-10 11:46:00,
2013-08-10 07:52:00,61.2,59.5,30.06,West,259,0.0,0.0,94,0.00,,,0.00,LWC V1.12 B30,2013-08-10 11:52:00,
2013-08-10 07:58:00,61.3,59.6,30.06,West,259,0.0,0.0,94,0.00,,,0.00,LWC V1.12 B30,2013-08-10 11:58:00,
2013-08-10 08:04:00,61.6,59.9,30.06,West,259,0.0,0.0,94,0.00,,,0.00,LWC V1.12 B30,2013-08-10 12:04:00,
2013-08-10 08:10:00,61.8,59.8,30.06,West,259,0.0,0.0,93,0.00,,,0.00,LWC V1.12 B30,2013-08-10 12:10:00,
2013-08-10 08:16:00,62.0,59.9,30.06,West,259,0.0,0.0,93,0.00,,,0.00,LWC V1.12 B30,2013-08-10 12:16:00,
2013-08-10 08:22:00,62.3,60.2,30.06,West,259,0.0,0.0,93,0.00,,,0.00,LWC V1.12 B30,2013-08-10 12:22:00,
2013-08-10 08:28:00,62.6,60.5,30.06,West,259,0.0,0.0,93,0.00,,,0.00,LWC V1.12 B30,2013-08-10 12:28:00,
2013-08-10 08:34:00,62.9,60.5,30.06,West,259,0.0,0.0,92,0.00,,,0.00,LWC V1.12 B30,2013-08-10 12:34:00,
2013-08-10 08:40:00,63.2,60.8,30.06,West,259,0.0,0.0,92,0.00,,,0.00,LWC V1.12 B30,2013-08-10 12:40:00,
2013-08-10 08:46:00,63.7,61.0,30.06,West,259,0.0,0.0,91,0.00,,,0.00,LWC V1.12 B30,2013-08-10 12:46:00,
2013-08-10 08:52:00,63.9,60.9,30.06,West,259,0.0,0.0,90,0.00,,,0.00,LWC V1.12 B30,2013-08-10 12:52:00,
2013-08-10 08:58:00,64.0,60.7,30.06,West,259,0.0,0.0,89,0.00,,,0.00,LWC V1.12 B30,2013-08-10 12:58:00,
2013-08-10 09:04:00,64.3,60.7,30.06,West,259,0.0,0.0,88,0.00,,,0.00,LWC V1.12 B30,2013-08-10 13:04:00,
2013-08-10 09:10:00,64.7,60.7,30.06,West,259,0.0,0.0,87,0.00,,,0.00,LWC V1.12 B30,2013-08-10 13:10:00,
2013-08-10 09:16:00,65.0,60.7,30.06,West,259,0.0,0.0,86,0.00,,,0.00,LWC V1.12 B30,2013-08-10 13:16:00,
2013-08-10 09:22:00,65.3,61.0,30.06,West,259,0.0,0.0,86,0.00,,,0.00,LWC V1.12 B30,2013-08-10 13:22:00,
2013-08-10 09:28:00,65.3,60.3,30.06,West,259,0.0,1.0,84,0.00,,,0.00,LWC V1.12 B30,2013-08-10 13:28:00,
2013-08-10 09:34:00,65.8,60.8,30.06,West,259,0.0,0.0,84,0.00,,,0.00,LWC V1.12 B30,2013-08-10 13:34:00,
2013-08-10 09:40:00,66.1,60.8,30.06,West,259,0.0,1.0,83,0.00,,,0.00,LWC V1.12 B30,2013-08-10 13:40:00,
2013-08-10 09:46:00,66.6,60.9,30.06,West,259,0.0,0.0,82,0.00,,,0.00,LWC V1.12 B30,2013-08-10 13:46:00,
2013-08-10 09:52:00,66.9,60.9,30.06,West,259,0.0,0.0,81,0.00,,,0.00,LWC V1.12 B30,2013-08-10 13:52:00,
2013-08-10 09:58:00,67.3,60.9,30.06,West,259,0.0,0.0,80,0.00,,,0.00,LWC V1.12 B30,2013-08-10 13:58:00,
2013-08-10 10:04:00,67.6,61.2,30.06,West,259,0.0,0.0,80,0.00,,,0.00,LWC V1.12 B30,2013-08-10 14:04:00,
2013-08-10 10:10:00,67.9,61.5,30.06,West,259,2.0,4.0,80,0.00,,,0.00,LWC V1.12 B30,2013-08-10 14:10:00,
2013-08-10 10:16:00,67.9,60.8,30.06,ESE,123,0.0,2.0,78,0.00,,,0.00,LWC V1.12 B30,2013-08-10 14:16:00,
2013-08-10 10:22:00,68.1,61.0,30.06,ESE,123,1.0,2.0,78,0.00,,,0.00,LWC V1.12 B30,2013-08-10 14:22:00,
2013-08-10 10:28:00,68.1,60.6,30.06,ESE,123,0.0,2.0,77,0.00,,,0.00,LWC V1.12 B30,2013-08-10 14:28:00,
2013-08-10 10:34:00,68.1,61.0,30.06,ESE,123,0.0,0.0,78,0.00,,,0.00,LWC V1.12 B30,2013-08-10 14:34:00,
2013-08-10 10:40:00,68.4,60.9,30.07,ESE,123,0.0,2.0,77,0.00,,,0.00,LWC V1.12 B30,2013-08-10 14:40:00,
2013-08-10 10:46:00,68.9,61.0,30.07,ESE,123,0.0,2.0,76,0.00,,,0.00,LWC V1.12 B30,2013-08-10 14:46:00,
2013-08-10 10:52:00,69.3,61.0,30.07,ESE,123,0.0,0.0,75,0.00,,,0.00,LWC V1.12 B30,2013-08-10 14:52:00,
2013-08-10 10:58:00,69.4,60.0,30.07,ESE,123,0.0,0.0,72,0.00,,,0.00,LWC V1.12 B30,2013-08-10 14:58:00,
2013-08-10 11:04:00,69.6,60.5,30.07,ESE,123,0.0,2.0,73,0.00,,,0.00,LWC V1.12 B30,2013-08-10 15:04:00,
2013-08-10 11:10:00,70.4,60.1,30.07,ESE,123,0.0,2.0,70,0.00,,,0.00,LWC V1.12 B30,2013-08-10 15:10:00,
2013-08-10 11:16:00,71.3,60.2,30.07,SSE,148,0.0,0.0,68,0.00,,,0.00,LWC V1.12 B30,2013-08-10 15:16:00,
2013-08-10 11:22:00,72.3,59.4,30.08,SSE,148,0.0,0.0,64,0.00,,,0.00,LWC V1.12 B30,2013-08-10 15:22:00,
2013-08-10 11:28:00,72.7,59.8,30.08,SSE,148,0.0,1.0,64,0.00,,,0.00,LWC V1.12 B30,2013-08-10 15:28:00,
2013-08-10 11:34:00,72.5,59.2,30.08,SSW,213,0.0,0.0,63,0.00,,,0.00,LWC V1.12 B30,2013-08-10 15:34:00,
2013-08-10 11:40:00,72.1,59.2,30.08,SSW,213,0.0,0.0,64,0.00,,,0.00,LWC V1.12 B30,2013-08-10 15:40:00,
2013-08-10 11:46:00,71.6,58.8,30.08,SSW,211,0.0,1.0,64,0.00,,,0.00,LWC V1.12 B30,2013-08-10 15:46:00,
2013-08-10 11:52:00,71.3,58.9,30.09,SSW,210,0.0,1.0,65,0.00,,,0.00,LWC V1.12 B30,2013-08-10 15:52:00,
2013-08-10 11:58:00,71.5,60.0,30.09,SSW,210,0.0,1.0,67,0.00,,,0.00,LWC V1.12 B30,2013-08-10 15:58:00,
2013-08-10 12:04:00,71.5,58.2,30.08,SSW,210,0.0,1.0,63,0.00,,,0.00,LWC V1.12 B30,2013-08-10 16:04:00,
2013-08-10 12:10:00,71.6,57.0,30.09,SSW,210,1.0,1.0,60,0.00,,,0.00,LWC V1.12 B30,2013-08-10 16:10:00,
2013-08-10 12:16:00,71.8,59.0,30.09,SSW,210,0.0,1.0,64,0.00,,,0.00,LWC V1.12 B30,2013-08-10 16:16:00,
2013-08-10 12:22:00,72.0,59.1,30.09,SSE,165,1.0,2.0,64,0.00,,,0.00,LWC V1.12 B30,2013-08-10 16:22:00,
2013-08-10 12:28:00,71.8,57.2,30.09,SSE,165,0.0,2.0,60,0.00,,,0.00,LWC V1.12 B30,2013-08-10 16:28:00,
2013-08-10 12:34:00,72.1,57.0,30.09,SSE,165,0.0,1.0,59,0.00,,,0.00,LWC V1.12 B30,2013-08-10 16:34:00,
2013-08-10 12:40:00,72.8,59.0,30.09,SSE,165,0.0,0.0,62,0.00,,,0.00,LWC V1.12 B30,2013-08-10 16:40:00,
2013-08-10 12:46:00,72.8,58.1,30.09,SSE,165,0.0,0.0,60,0.00,,,0.00,LWC V1.12 B30,2013-08-10 16:46:00,
2013-08-10 12:52:00,72.8,57.1,30.09,SSE,165,1.0,1.0,58,0.00,,,0.00,LWC V1.12 B30,2013-08-10 16:52:00,
2013-08-10 12:58:00,73.2,57.5,30.09,SE,138,0.0,1.0,58,0.00,,,0.00,LWC V1.12 B30,2013-08-10 16:58:00,
2013-08-10 13:04:00,73.7,58.5,30.08,ESE,109,0.0,2.0,59,0.00,,,0.00,LWC V1.12 B30,2013-08-10 17:04:00,
2013-08-10 13:10:00,73.9,59.1,30.08,ESE,109,1.0,1.0,60,0.00,,,0.00,LWC V1.12 B30,2013-08-10 17:10:00,
2013-08-10 13:16:00,73.9,57.7,30.08,ESE,107,0.0,1.0,57,0.00,,,0.00,LWC V1.12 B30,2013-08-10 17:16:00,
2013-08-10 13:22:00,73.7,58.0,30.08,NNW,330,0.0,0.0,58,0.00,,,0.00,LWC V1.12 B30,2013-08-10 17:22:00,
2013-08-10 13:28:00,73.3,57.6,30.08,NNW,330,0.0,0.0,58,0.00,,,0.00,LWC V1.12 B30,2013-08-10 17:28:00,
2013-08-10 13:34:00,73.3,56.6,30.08,NE,45,1.0,2.0,56,0.00,,,0.00,LWC V1.12 B30,2013-08-10 17:34:00,
2013-08-10 13:40:00,73.9,56.7,30.08,SW,215,2.0,3.0,55,0.00,,,0.00,LWC V1.12 B30,2013-08-10 17:40:00,
2013-08-10 13:46:00,74.6,56.3,30.08,SW,218,1.0,2.0,53,0.00,,,0.00,LWC V1.12 B30,2013-08-10 17:46:00,
2013-08-10 13:52:00,75.3,58.0,30.08,WNW,302,4.0,4.0,55,0.00,,,0.00,LWC V1.12 B30,2013-08-10 17:52:00,
2013-08-10 13:58:00,75.1,55.7,30.08,WNW,302,0.0,1.0,51,0.00,,,0.00,LWC V1.12 B30,2013-08-10 17:58:00,
2013-08-10 14:04:00,74.9,54.4,30.08,WNW,302,2.0,2.0,49,0.00,,,0.00,LWC V1.12 B30,2013-08-10 18:04:00,
2013-08-10 14:10:00,75.1,55.7,30.07,WNW,302,0.0,1.0,51,0.00,,,0.00,LWC V1.12 B30,2013-08-10 18:10:00,
2013-08-10 14:16:00,75.3,57.5,30.08,WNW,302,1.0,1.0,54,0.00,,,0.00,LWC V1.12 B30,2013-08-10 18:16:00,
2013-08-10 14:22:00,75.3,55.9,30.07,WNW,302,1.0,1.0,51,0.00,,,0.00,LWC V1.12 B30,2013-08-10 18:22:00,
2013-08-10 14:28:00,75.1,56.8,30.07,WNW,302,0.0,2.0,53,0.00,,,0.00,LWC V1.12 B30,2013-08-10 18:28:00,
2013-08-10 14:34:00,74.2,58.9,30.07,WNW,302,0.0,0.0,59,0.00,,,0.00,LWC V1.12 B30,2013-08-10 18:34:00,
2013-08-10 14:40:00,73.5,58.7,30.07,WNW,302,0.0,1.0,60,0.00,,,0.00,LWC V1.12 B30,2013-08-10 18:40:00,
2013-08-10 14:46:00,73.2,60.3,30.07,WNW,302,0.0,1.0,64,0.00,,,0.00,LWC V1.12 B30,2013-08-10 18:46:00,
2013-08-10 14:52:00,72.8,59.5,30.07,WNW,302,0.0,0.0,63,0.00,,,0.00,LWC V1.12 B30,2013-08-10 18:52:00,
2013-08-10 14:58:00,72.8,58.1,30.07,WNW,302,0.0,0.0,60,0.00,,,0.00,LWC V1.12 B30,2013-08-10 18:58:00,
2013-08-10 15:04:00,72.8,59.5,30.07,WNW,302,0.0,0.0,63,0.00,,,0.00,LWC V1.12 B30,2013-08-10 19:04:00,
2013-08-10 15:10:00,72.8,57.6,30.07,WNW,302,0.0,0.0,59,0.00,,,0.00,LWC V1.12 B30,2013-08-10 19:10:00,
2013-08-10 15:16:00,73.0,57.8,30.07,WNW,302,0.0,1.0,59,0.00,,,0.00,LWC V1.12 B30,2013-08-10 19:16:00,
2013-08-10 15:22:00,73.7,58.0,30.07,WNW,302,0.0,1.0,58,0.00,,,0.00,LWC V1.12 B30,2013-08-10 19:22:00,
2013-08-10 15:28:00,74.4,58.2,30.07,WNW,302,0.0,1.0,57,0.00,,,0.00,LWC V1.12 B30,2013-08-10 19:28:00,
2013-08-10 15:34:00,74.7,56.9,30.07,WNW,302,0.0,1.0,54,0.00,,,0.00,LWC V1.12 B30,2013-08-10 19:34:00,
2013-08-10 15:40:00,75.1,55.7,30.06,WNW,302,0.0,1.0,51,0.00,,,0.00,LWC V1.12 B30,2013-08-10 19:40:00,
2013-08-10 15:46:00,74.9,56.6,30.06,SSE,153,0.0,2.0,53,0.00,,,0.00,LWC V1.12 B30,2013-08-10 19:46:00,
2013-08-10 15:52:00,75.1,56.8,30.06,NNE,30,2.0,2.0,53,0.00,,,0.00,LWC V1.12 B30,2013-08-10 19:52:00,
2013-08-10 15:58:00,74.9,56.6,30.06,NW,324,0.0,1.0,53,0.00,,,0.00,LWC V1.12 B30,2013-08-10 19:58:00,
2013-08-10 16:04:00,75.1,57.3,30.06,NW,324,0.0,1.0,54,0.00,,,0.00,LWC V1.12 B30,2013-08-10 20:04:00,
2013-08-10 16:10:00,75.3,57.5,30.05,NW,324,0.0,1.0,54,0.00,,,0.00,LWC V1.12 B30,2013-08-10 20:10:00,
2013-08-10 16:16:00,75.3,58.0,30.05,NW,324,0.0,1.0,55,0.00,,,0.00,LWC V1.12 B30,2013-08-10 20:16:00,
2013-08-10 16:22:00,74.9,57.1,30.05,NW,325,0.0,1.0,54,0.00,,,0.00,LWC V1.12 B30,2013-08-10 20:22:00,
2013-08-10 16:28:00,74.4,59.6,30.05,ENE,63,0.0,1.0,60,0.00,,,0.00,LWC V1.12 B30,2013-08-10 20:28:00,
2013-08-10 16:34:00,73.9,57.2,30.05,ENE,65,1.0,2.0,56,0.00,,,0.00,LWC V1.12 B30,2013-08-10 20:34:00,
2013-08-10 16:40:00,73.9,58.7,30.05,ENE,65,0.0,0.0,59,0.00,,,0.00,LWC V1.12 B30,2013-08-10 20:40:00,
2013-08-10 16:46:00,74.0,57.3,30.05,ENE,65,0.0,0.0,56,0.00,,,0.00,LWC V1.12 B30,2013-08-10 20:46:00,
2013-08-10 16:52:00,74.2,58.5,30.05,ENE,65,0.0,2.0,58,0.00,,,0.00,LWC V1.12 B30,2013-08-10 20:52:00,
2013-08-10 16:58:00,74.2,58.0,30.05,ENE,65,0.0,1.0,57,0.00,,,0.00,LWC V1.12 B30,2013-08-10 20:58:00,
2013-08-10 17:04:00,74.2,58.9,30.05,ENE,65,0.0,1.0,59,0.00,,,0.00,LWC V1.12 B30,2013-08-10 21:04:00,
2013-08-10 17:10:00,74.4,58.6,30.05,ENE,65,0.0,1.0,58,0.00,,,0.00,LWC V1.12 B30,2013-08-10 21:10:00,
2013-08-10 17:16:00,74.2,57.0,30.05,ENE,65,0.0,1.0,55,0.00,,,0.00,LWC V1.12 B30,2013-08-10 21:16:00,
2013-08-10 17:22:00,74.6,57.8,30.05,ENE,65,0.0,1.0,56,0.00,,,0.00,LWC V1.12 B30,2013-08-10 21:22:00,
2013-08-10 17:28:00,74.6,58.3,30.05,ENE,65,1.0,1.0,57,0.00,,,0.00,LWC V1.12 B30,2013-08-10 21:28:00,
2013-08-10 17:34:00,74.6,57.8,30.05,ENE,65,0.0,1.0,56,0.00,,,0.00,LWC V1.12 B30,2013-08-10 21:34:00,
2013-08-10 17:40:00,74.6,57.8,30.05,ENE,65,0.0,0.0,56,0.00,,,0.00,LWC V1.12 B30,2013-08-10 21:40:00,
2013-08-10 17:46:00,74.9,55.5,30.05,ENE,65,0.0,0.0,51,0.00,,,0.00,LWC V1.12 B30,2013-08-10 21:46:00,
2013-08-10 17:52:00,75.1,55.7,30.05,ENE,65,1.0,2.0,51,0.00,,,0.00,LWC V1.12 B30,2013-08-10 21:52:00,
2013-08-10 17:58:00,75.1,56.3,30.05,NNE,13,0.0,2.0,52,0.00,,,0.00,LWC V1.12 B30,2013-08-10 21:58:00,
2013-08-10 18:04:00,74.6,55.8,30.05,North,11,0.0,0.0,52,0.00,,,0.00,LWC V1.12 B30,2013-08-10 22:04:00,
2013-08-10 18:10:00,74.2,57.0,30.05,North,11,0.0,0.0,55,0.00,,,0.00,LWC V1.12 B30,2013-08-10 22:10:00,
2013-08-10 18:16:00,73.9,56.2,30.05,North,11,0.0,0.0,54,0.00,,,0.00,LWC V1.12 B30,2013-08-10 22:16:00,
2013-08-10 18:22:00,73.5,55.8,30.05,North,11,0.0,0.0,54,0.00,,,0.00,LWC V1.12 B30,2013-08-10 22:22:00,
2013-08-10 18:28:00,73.7,57.0,30.04,North,11,0.0,0.0,56,0.00,,,0.00,LWC V1.12 B30,2013-08-10 22:28:00,
2013-08-10 18:30:00,73.7,57.0,30.04,North,11,0.0,0.0,56,0.00,,,0.00,LWC V1.12 B30,2013-08-10 22:30:00,
2013-08-10 18:36:00,74.0,56.3,30.04,NNW,340,0.0,1.0,54,0.00,,,0.00,LWC V1.12 B30,2013-08-10 22:36:00,
2013-08-10 18:42:00,74.2,56.0,30.04,NNW,340,0.0,1.0,53,0.00,,,0.00,LWC V1.12 B30,2013-08-10 22:42:00,
2013-08-10 18:48:00,74.0,56.3,30.04,NW,315,0.0,5.0,54,0.00,,,0.00,LWC V1.12 B30,2013-08-10 22:48:00,
2013-08-10 18:54:00,73.5,56.3,30.05,NW,318,0.0,0.0,55,0.00,,,0.00,LWC V1.12 B30,2013-08-10 22:54:00,
2013-08-10 19:00:00,73.3,55.6,30.04,North,355,1.0,2.0,54,0.00,,,0.00,LWC V1.12 B30,2013-08-10 23:00:00,
2013-08-10 19:06:00,73.3,56.6,30.04,North,355,0.0,1.0,56,0.00,,,0.00,LWC V1.12 B30,2013-08-10 23:06:00,
2013-08-10 19:12:00,73.2,56.0,30.04,NNW,336,1.0,4.0,55,0.00,,,0.00,LWC V1.12 B30,2013-08-10 23:12:00,
2013-08-10 19:18:00,73.0,55.9,30.04,NNW,336,0.0,1.0,55,0.00,,,0.00,LWC V1.12 B30,2013-08-10 23:18:00,
2013-08-10 19:24:00,72.8,56.2,30.04,NNW,336,0.0,0.0,56,0.00,,,0.00,LWC V1.12 B30,2013-08-10 23:24:00,
2013-08-10 19:30:00,72.8,56.7,30.04,NNW,336,0.0,1.0,57,0.00,,,0.00,LWC V1.12 B30,2013-08-10 23:30:00,
2013-08-10 19:36:00,72.5,56.9,30.04,NNW,336,0.0,0.0,58,0.00,,,0.00,LWC V1.12 B30,2013-08-10 23:36:00,
2013-08-10 19:42:00,72.3,57.2,30.04,NNW,336,0.0,0.0,59,0.00,,,0.00,LWC V1.12 B30,2013-08-10 23:42:00,
2013-08-10 19:48:00,72.1,57.9,30.04,NNW,336,0.0,0.0,61,0.00,,,0.00,LWC V1.12 B30,2013-08-10 23:48:00,
2013-08-10 19:54:00,71.8,57.6,30.04,NNW,336,0.0,0.0,61,0.00,,,0.00,LWC V1.12 B30,2013-08-10 23:54:00,
2013-08-10 20:00:00,71.5,57.8,30.04,NNW,336,0.0,0.0,62,0.00,,,0.00,LWC V1.12 B30,2013-08-11 00:00:00,
2013-08-10 20:06:00,71.1,57.4,30.04,NNW,336,0.0,0.0,62,0.00,,,0.00,LWC V1.12 B30,2013-08-11 00:06:00,
2013-08-10 20:12:00,70.8,57.1,30.04,NNW,336,0.0,0.0,62,0.00,,,0.00,LWC V1.12 B30,2013-08-11 00:12:00,
2013-08-10 20:18:00,70.4,57.2,30.04,NNW,336,0.0,0.0,63,0.00,,,0.00,LWC V1.12 B30,2013-08-11 00:18:00,
2013-08-10 20:24:00,70.3,57.1,30.04,NNW,336,0.0,0.0,63,0.00,,,0.00,LWC V1.12 B30,2013-08-11 00:24:00,
2013-08-10 20:30:00,70.1,57.3,30.04,NNW,336,0.0,0.0,64,0.00,,,0.00,LWC V1.12 B30,2013-08-11 00:30:00,
2013-08-10 20:36:00,69.8,57.5,30.04,NNW,336,0.0,0.0,65,0.00,,,0.00,LWC V1.12 B30,2013-08-11 00:36:00,
2013-08-10 20:42:00,69.4,57.5,30.04,NNW,336,0.0,0.0,66,0.00,,,0.00,LWC V1.12 B30,2013-08-11 00:42:00,
2013-08-10 20:48:00,69.1,57.7,30.04,NNW,336,0.0,0.0,67,0.00,,,0.00,LWC V1.12 B30,2013-08-11 00:48:00,
2013-08-10 20:54:00,68.8,58.6,30.04,NNW,336,0.0,0.0,70,0.00,,,0.00,LWC V1.12 B30,2013-08-11 00:54:00,
2013-08-10 21:00:00,68.4,58.6,30.05,NNW,336,0.0,0.0,71,0.00,,,0.00,LWC V1.12 B30,2013-08-11 01:00:00,
2013-08-10 21:06:00,67.9,59.3,30.05,NNW,336,0.0,0.0,74,0.00,,,0.00,LWC V1.12 B30,2013-08-11 01:06:00,
2013-08-10 21:12:00,67.3,59.1,30.05,NNW,336,0.0,0.0,75,0.00,,,0.00,LWC V1.12 B30,2013-08-11 01:12:00,
2013-08-10 21:18:00,66.6,58.4,30.05,NNW,336,0.0,0.0,75,0.00,,,0.00,LWC V1.12 B30,2013-08-11 01:18:00,
2013-08-10 21:24:00,66.3,58.9,30.05,NNW,336,0.0,0.0,77,0.00,,,0.00,LWC V1.12 B30,2013-08-11 01:24:00,
2013-08-10 21:30:00,65.8,58.7,30.06,NNW,336,0.0,0.0,78,0.00,,,0.00,LWC V1.12 B30,2013-08-11 01:30:00,
2013-08-10 21:36:00,65.3,58.6,30.05,NNW,336,0.0,0.0,79,0.00,,,0.00,LWC V1.12 B30,2013-08-11 01:36:00,
2013-08-10 21:42:00,64.8,58.5,30.06,NNW,336,0.0,0.0,80,0.00,,,0.00,LWC V1.12 B30,2013-08-11 01:42:00,
2013-08-10 21:48:00,64.5,58.5,30.06,NNW,336,0.0,0.0,81,0.00,,,0.00,LWC V1.12 B30,2013-08-11 01:48:00,
2013-08-10 21:54:00,64.2,58.6,30.06,NNW,336,0.0,0.0,82,0.00,,,0.00,LWC V1.12 B30,2013-08-11 01:54:00,
2013-08-10 22:00:00,63.9,58.6,30.07,NNW,336,0.0,0.0,83,0.00,,,0.00,LWC V1.12 B30,2013-08-11 02:00:00,
2013-08-10 22:06:00,63.5,58.6,30.07,NNW,336,0.0,0.0,84,0.00,,,0.00,LWC V1.12 B30,2013-08-11 02:06:00,
2013-08-10 22:12:00,63.2,58.3,30.06,NNW,336,0.0,0.0,84,0.00,,,0.00,LWC V1.12 B30,2013-08-11 02:12:00,
2013-08-10 22:18:00,62.9,58.0,30.07,NNW,336,0.0,0.0,84,0.00,,,0.00,LWC V1.12 B30,2013-08-11 02:18:00,
2013-08-10 22:24:00,62.4,57.8,30.07,NNW,336,0.0,0.0,85,0.00,,,0.00,LWC V1.12 B30,2013-08-11 02:24:00,
2013-08-10 22:30:00,62.3,57.7,30.07,NNW,336,0.0,0.0,85,0.00,,,0.00,LWC V1.12 B30,2013-08-11 02:30:00,
2013-08-10 22:36:00,62.0,57.8,30.07,NNW,336,0.0,0.0,86,0.00,,,0.00,LWC V1.12 B30,2013-08-11 02:36:00,
2013-08-10 22:42:00,61.6,57.4,30.07,NNW,336,0.0,0.0,86,0.00,,,0.00,LWC V1.12 B30,2013-08-11 02:42:00,
2013-08-10 22:48:00,61.3,57.4,30.07,NNW,336,0.0,0.0,87,0.00,,,0.00,LWC V1.12 B30,2013-08-11 02:48:00,
2013-08-10 22:54:00,61.2,57.6,30.07,NNW,336,0.0,0.0,88,0.00,,,0.00,LWC V1.12 B30,2013-08-11 02:54:00,
2013-08-10 23:00:00,61.0,57.4,30.07,NNW,336,0.0,0.0,88,0.00,,,0.00,LWC V1.12 B30,2013-08-11 03:00:00,
2013-08-10 23:06:00,60.9,57.3,30.07,NNW,336,0.0,0.0,88,0.00,,,0.00,LWC V1.12 B30,2013-08-11 03:06:00,
2013-08-10 23:12:00,60.7,57.4,30.07,NNW,336,0.0,0.0,89,0.00,,,0.00,LWC V1.12 B30,2013-08-11 03:12:00,
2013-08-10 23:18:00,60.5,57.2,30.07,NNW,336,0.0,0.0,89,0.00,,,0.00,LWC V1.12 B30,2013-08-11 03:18:00,
2013-08-10 23:24:00,60.5,57.2,30.07,NNW,336,0.0,0.0,89,0.00,,,0.00,LWC V1.12 B30,2013-08-11 03:24:00,
2013-08-10 23:30:00,60.5,57.2,30.08,NNW,336,0.0,0.0,89,0.00,,,0.00,LWC V1.12 B30,2013-08-11 03:30:00,
2013-08-10 23:36:00,60.5,57.2,30.08,NNW,336,0.0,0.0,89,0.00,,,0.00,LWC V1.12 B30,2013-08-11 03:36:00,
2013-08-10 23:42:00,60.4,57.1,30.08,NNW,336,0.0,0.0,89,0.00,,,0.00,LWC V1.12 B30,2013-08-11 03:42:00,
2013-08-10 23:50:00,60.4,57.1,30.08,NNW,336,0.0,0.0,89,0.00,,,0.00,LWC V1.12 B30,2013-08-11 03:50:00,
2013-08-10 23:56:00,60.5,57.2,30.08,NNW,336,0.0,0.0,89,0.00,,,0.00,LWC V1.12 B30,2013-08-11 03:56:00,